Location: Haliburton Scout Reserve
(45.0900°N, 78.3200°W)
Time: 08:12:27
(UTC-04:00)

S-56A Canister/Altair - Pass Details

Date: 03 February 2023
Orbit: 639 x 2493 km, 38.9° (Epoch: 27 March)

Event Time Altitude Azimuth Distance (km) Brightness Sun altitude
Rises 12:38:49 0° 250° (WSW) 2,999 10.9 28.4°
Reaches altitude 10° 12:41:00 10° 244° (WSW) 2,170 10.3 28.4°
Maximum altitude 12:45:41 45° 172° (S) 1,122 10.1 28.3°
Drops below altitude 10° 12:52:02 10° 101° (ESE) 2,934 10.6 28.2°
Sets 12:55:26 0° 96° (E) 4,191 11.3 28.1°
